#timestamp,LO_Frequency,Hit,StdDev 
1557691215.3,286047001.1,N
1557691235.2,286046999.5,N
1557691255.0,286047000.9,N
1557691255.9,286047000.9,N
1557691275.8,286047000.9,N
1557691295.6,286047000.5,N
1557691315.4,286046998.2,N
1557691335.3,286046996.5,N
1557691355.1,286046997.9,N
1557691375.8,286046999.2,N
1557691395.7,286046998.1,N
1557691415.5,286047000.1,N
1557691435.4,286047002.5,N
1557691455.2,286047002.6,N
1557691475.0,286047001.4,N
1557691475.9,286047001.4,N
1557691495.8,286047002.2,N
1557691515.6,286047000.6,N
1557691535.4,286046999.5,N
1557691555.3,286046998.5,N
1557691575.1,286046999.4,N
1557691595.9,286046997.8,N
1557691615.7,286046995.3,N
1557691635.5,286046997.4,N
1557691655.4,286046997.5,N
1557691675.2,286046999.1,N
1557691695.0,286047002.8,N
1557691695.9,286047002.8,N
1557691715.8,286047000.8,N
1557691735.6,286047001.2,N
1557691755.5,286046996.7,N
1557691775.3,286046997.2,N
1557691795.1,286046996.6,N
1557691815.9,286046999.4,N
1557691835.7,286046997.1,N
1557691855.6,286046996.7,N
1557691875.4,286046996.9,N
1557691895.2,286046998.6,N
1557691915.1,286046999.5,N
1557691916.0,286046999.5,N
1557691935.8,286046998.8,N
1557691955.6,286046997.7,N
1557691975.5,286046997.6,N
1557691995.3,286046999.1,N
1557692015.2,286046998.1,N
1557692035.9,286047000.2,N
1557692055.7,286047002.5,N
1557692075.6,286047001.0,N
1557692095.4,286047000.5,N
1557692115.2,286046997.4,N
1557692135.1,286046993.7,Y
1557692136.0,286046993.7,P
1557692155.8,286046997.9,N
1557692175.7,286046997.6,N
1557692195.5,286046999.5,N
1557692215.3,286046997.4,N
1557692235.2,286046997.5,N
1557692255.9,286046996.8,N
1557692275.7,286046997.4,N
1557692295.6,286046997.3,N
1557692315.4,286046998.0,N
1557692335.2,286046996.9,N
1557692355.1,286046998.5,N
1557692356.0,286046998.5,N
1557692375.8,286047000.6,N
1557692395.7,286047000.3,N
1557692415.5,286046998.6,N
1557692435.2,286046999.4,N
1557692455.0,286047001.1,N
1557692456.0,286047001.1,N
1557692475.8,286047000.1,N
1557692495.6,286047001.8,N
1557692515.5,286047000.7,N
1557692535.3,286047000.1,N
1557692555.1,286047002.7,N
1557692575.9,286047003.7,N
1557692595.7,286047001.4,N
1557692615.5,286047002.5,N
1557692635.4,286047000.9,N
1557692655.2,286047000.1,N
1557692675.1,286047004.1,N
1557692676.0,286047004.1,N
1557692695.8,286047004.2,N
1557692715.6,286047004.4,N
1557692735.5,286047001.3,N
1557692755.3,286046999.9,N
1557692775.1,286047000.6,N
1557692795.9,286047000.8,N
1557692815.7,286046999.7,N
1557692835.6,286047002.8,N
1557692855.4,286047003.8,N
1557692875.2,286047000.0,N
1557692895.1,286046999.7,N
1557692896.0,286046999.7,N
1557692915.8,286047001.0,N
1557692935.6,286047004.3,N
1557692955.5,286047003.2,N
1557692975.3,286047001.8,N
1557692995.2,286047004.0,N
1557693015.9,286047002.7,N
1557693035.7,286047001.2,N
1557693055.6,286047002.2,N
1557693075.4,286046998.3,N
1557693095.2,286047000.1,N
1557693115.1,286047000.4,N
1557693116.0,286047000.4,N
1557693135.8,286047000.9,N
1557693155.7,286047002.4,N
1557693175.5,286047002.3,N
1557693195.3,286047002.1,N
1557693215.2,286046999.8,N
1557693235.0,286047000.1,N
1557693235.9,286047000.1,N
1557693255.7,286047001.0,N
1557693305.6,286047004.2,E
1557693315.5,286047001.4,N
1557693335.4,286047002.8,P
1557693355.2,286047003.9,P
1557693375.0,286046999.7,N
1557693376.0,286046999.7,N
1557693395.8,286047000.2,N
1557693415.6,286046996.9,N
1557693435.5,286046996.4,N
1557693455.3,286046993.5,N
1557693475.1,286046997.8,N
1557693495.9,286046996.2,N
1557693515.7,286046996.2,N
1557693535.6,286046997.9,N
1557693555.4,286046994.9,N
1557693575.2,286046996.1,N
1557693595.1,286046996.8,N
1557693596.0,286046996.8,N
1557693615.8,286047000.9,N
1557693635.6,286046999.0,N
1557693655.5,286046997.0,N
1557693675.3,286046997.1,N
1557693695.2,286046997.6,N
1557693715.9,286046998.5,N
1557693735.7,286046997.1,N
1557693755.6,286046997.9,N
1557693775.4,286046995.6,N
1557693795.2,286046995.1,N
1557693815.1,286046995.0,N
1557693816.0,286046995.0,N
1557693835.8,286046997.0,N
1557693855.7,286046999.4,N
1557693875.5,286046999.3,N
1557693895.3,286047001.0,N
1557693915.2,286047000.3,N
1557693935.0,286047002.6,N
1557693935.9,286047011.9,Y
1557693955.8,286046999.9,P
1557693975.6,286047000.0,N
1557693995.4,286047000.2,N
1557694015.3,286047000.5,N
1557694035.1,286047004.0,Y
1557694055.8,286047003.3,P
1557694075.7,286047003.0,N
1557694095.5,286047004.4,N
1557694115.4,286047001.0,N
1557694135.2,286047002.4,N
1557694155.0,286047001.7,N
1557694155.9,286047001.7,N
1557694175.8,286047005.2,Y
1557694195.6,286047006.0,P
1557694215.4,286047005.8,N
1557694235.3,286047002.2,N
1557694255.1,286047000.4,N
1557694275.9,286047002.8,N
1557694295.7,286047002.6,N
1557694315.5,286047002.7,N
1557694335.4,286046998.1,N
1557694355.2,286047000.3,N
1557694375.0,286047000.0,N
1557694406.0,286047001.8,E
1557694415.9,286047002.8,N
1557694435.7,286047002.8,P
1557694455.6,286047002.1,P
1557694475.4,286046999.2,N
1557694495.2,286046998.3,N
1557694515.1,286047001.8,N
1557694516.0,286047001.8,N
1557694535.8,286047003.9,N
1557694555.7,286047000.0,N
1557694575.5,286046998.8,N
1557694595.3,286046999.5,N
1557694615.2,286046996.5,N
1557694635.0,286046995.2,N
1557694635.9,286046995.2,N
1557694655.8,286046995.7,N
1557694675.6,286046998.0,N
1557694695.4,286046995.0,N
1557694715.3,286047001.2,N
1557694735.1,286047000.7,N
1557694755.8,286047000.9,N
1557694775.7,286047002.7,N
1557694795.5,286047000.0,N
